Theta_e
321 325 328 329 340 343 348 350 353 352 353 349 347 351 347 344 346 350 350 350 347 346 344 345 346 345 345 345 345 344 348 345 348 348 351 347 348 349 347 350 351 352 350 351
323 325 327 329 337 343 347 353 355 352 351 354 353 355 349 349 348 348 348 350 350 348 346 345 347 347 347 347 347 345 348 346 349 349 349 348 345 347 351 349 350 352 351 351
326 327 327 329 335 337 336 346 351 349 347 347 356 359 356 350 348 348 346 346 348 349 350 347 348 347 349 349 347 349 351 350 346 350 349 347 346 347 345 350 350 351 350 350
326 329 330 331 331 331 332 339 340 342 341 354 346 358 357 352 351 348 344 345 349 347 347 344 347 345 349 349 351 349 351 350 347 350 349 348 349 348 350 348 350 350 350 351
327 328 328 330 329 330 332 336 337 337 340 339 344 348 360 351 352 351 346 341 345 346 345 347 347 346 349 349 350 351 350 349 348 350 348 349 350 350 347 349 350 352 350 352
326 326 327 326 328 329 330 332 334 337 338 340 340 346 366 358 356 352 348 344 345 344 344 348 345 345 348 348 349 351 351 348 351 349 347 348 349 349 349 349 347 352 352 351
325 324 324 326 326 327 327 329 333 339 346 351 344 343 356 355 354 351 352 349 344 345 347 347 347 346 347 349 349 350 354 353 350 352 352 352 349 351 349 348 348 348 351 351
329 327 325 325 324 328 329 327 331 353 352 352 342 349 347 342 350 349 349 346 344 346 347 347 345 348 347 350 350 352 355 354 350 353 351 351 351 349 350 349 349 349 351 351
333 328 327 327 328 328 333 332 333 335 343 342 346 346 344 344 350 349 347 347 347 349 349 348 346 347 341 345 350 354 356 354 352 353 352 350 350 350 349 351 344 347 350 351
330 332 331 328 328 328 330 335 337 337 350 350 353 349 352 354 354 352 350 349 348 348 349 344 345 345 346 348 352 353 356 356 353 353 351 351 353 349 350 353 349 347 350 351
328 329 331 329 329 329 330 332 332 337 340 347 352 356 346 350 349 353 346 346 347 348 349 349 347 343 340 342 349 352 355 356 355 354 353 352 352 351 352 353 351 353 353 353
327 330 331 331 330 330 331 331 330 335 353 346 345 346 342 342 346 346 345 345 345 353 349 351 348 346 345 350 350 349 355 356 355 353 354 353 352 353 352 351 352 351 350 352
331 330 329 329 331 331 332 332 329 333 338 346 344 343 340 338 347 346 345 344 352 352 352 351 347 348 348 353 351 352 353 354 354 354 355 354 355 353 354 353 351 354 352 352
326 323 324 328 330 331 333 333 333 333 337 341 339 337 338 341 347 349 345 341 347 349 346 350 348 348 345 351 349 347 351 353 354 354 355 354 353 354 354 353 353 352 352 352
322 325 326 325 325 326 327 329 332 333 333 339 338 340 339 339 341 353 348 341 341 342 345 343 345 349 350 351 348 348 355 354 355 355 355 355 354 354 353 353 353 353 353 353
325 328 327 325 325 325 323 322 325 330 332 332 339 340 341 341 349 352 352 351 348 342 341 342 345 345 349 350 351 358 357 356 355 356 357 357 354 354 354 353 352 352 353 354
327 328 328 326 324 325 327 326 326 327 328 332 332 346 337 338 344 352 352 352 355 355 351 351 347 347 351 348 347 337 358 358 356 357 357 357 357 356 356 356 356 356 355 355
325 326 326 327 326 327 326 328 328 331 332 334 336 344 340 342 335 340 347 348 349 349 349 350 354 354 351 347 350 357 357 358 357 356 356 356 357 358 356 356 357 353 355 355
323 324 326 328 328 328 329 333 332 334 334 328 333 336 336 333 336 347 344 344 345 343 343 346 350 352 352 351 354 358 358 357 356 356 356 356 357 357 356 358 358 355 353 354
324 327 328 327 329 332 330 332 332 332 334 336 335 336 339 341 347 348 344 343 342 339 341 346 351 350 353 353 352 350 355 354 357 356 356 355 354 355 356 353 353 353 353 352
329 328 327 328 329 328 333 332 331 332 340 337 337 339 338 342 341 346 341 341 341 338 340 344 349 350 351 351 351 348 345 349 350 350 349 350 351 352 350 351 350 349 347 344
327 330 330 328 332 335 333 331 335 338 335 335 336 342 341 339 342 342 339 338 339 337 339 342 344 347 349 349 349 347 345 339 342 344 341 346 347 345 345 344 342 341 342 340
327 327 327 328 337 335 331 328 329 330 331 328 335 340 333 338 341 340 339 338 335 335 336 341 341 342 343 346 348 348 346 344 345 345 343 343 341 341 338 336 334 333 333 332
332 328 327 329 327 325 327 326 326 327 328 328 332 332 330 332 340 341 339 335 333 333 334 338 338 338 337 339 342 345 345 342 340 337 335 337 337 335 335 334 332 331 330 329
330 329 330 332 329 326 328 330 331 330 330 331 332 332 333 338 341 341 340 336 333 332 332 333 335 334 334 335 338 340 339 337 335 334 333 332 329 330 331 331 330 328 330 331
329 327 327 328 329 328 329 330 330 332 334 335 334 335 333 329 337 339 339 336 334 333 332 332 333 332 331 332 334 336 335 333 331 329 329 330 329 328 327 327 326 326 327 327
Wind_Speed
11 10 13 17 10 7 13 12 11 11 14 17 10 11 16 19 13 11 9 1 13 15 5 13 21 16 20 18 17 13 14 17 11 8 5 8 8 8 7 11 9 8 5 3
8 13 16 16 4 21 14 17 9 12 18 11 13 10 11 13 11 12 13 7 6 9 14 16 24 22 22 23 20 16 19 17 16 14 12 11 10 8 8 10 7 6 5 1
13 10 15 9 1 9 9 12 14 6 13 8 15 8 11 10 11 14 14 11 4 4 11 10 26 22 26 24 28 21 17 15 17 10 12 7 9 7 7 8 8 5 5 3
11 7 3 5 10 9 13 11 10 13 8 5 12 2 17 15 15 17 20 13 8 2 10 14 10 24 26 25 25 25 21 18 20 10 6 10 9 8 16 12 12 11 6 3
6 3 5 12 12 12 5 2 6 11 9 9 11 9 10 17 16 20 21 18 14 9 20 11 21 24 30 30 28 28 23 19 17 13 11 12 13 17 7 11 15 9 9 4
12 4 7 12 9 10 11 8 7 12 10 11 14 9 13 15 23 23 19 18 19 20 21 15 26 29 30 27 27 28 29 22 17 16 14 17 15 9 11 14 12 12 11 11
13 12 9 9 7 7 9 13 11 8 4 10 7 8 8 23 19 22 19 19 21 18 16 18 22 31 33 29 27 28 29 25 20 17 16 15 11 6 8 10 14 16 16 18
8 11 12 10 12 13 12 15 13 6 2 4 27 7 4 3 17 13 19 20 19 21 17 16 10 8 13 28 29 28 31 25 24 20 18 15 10 6 9 12 8 7 3 5
7 4 7 6 7 14 7 11 14 8 8 6 10 6 11 9 20 17 20 21 18 21 23 13 13 22 26 35 30 30 31 28 27 22 20 18 16 17 15 10 13 11 6 7
13 6 6 9 5 12 14 5 10 8 2 8 4 4 5 5 17 13 12 11 10 18 18 16 15 29 24 21 27 32 32 30 27 25 25 19 16 18 14 6 8 12 10 2
10 9 3 3 8 10 7 8 5 3 4 8 2 2 3 15 16 18 19 15 16 19 19 14 18 30 29 28 32 28 31 27 27 25 27 23 21 19 14 11 10 11 10 5
12 9 11 12 5 3 3 8 13 7 7 7 8 1 6 15 26 16 10 3 1 4 8 11 18 28 27 33 31 29 31 28 27 26 25 23 23 22 20 18 15 16 15 11
10 5 9 10 7 7 7 7 8 12 7 4 2 6 6 11 19 13 10 6 3 6 7 4 5 22 26 22 24 24 28 28 28 24 24 24 22 22 21 21 20 17 17 16
4 11 12 11 9 6 9 15 12 4 6 4 10 13 10 11 22 15 11 11 5 3 6 6 8 10 16 20 27 19 23 27 27 26 25 25 24 22 19 18 19 19 17 17
6 10 11 13 15 15 16 16 9 12 8 10 7 12 5 3 19 12 14 13 10 4 6 5 2 7 14 10 27 42 34 28 26 26 24 25 23 21 21 17 16 17 17 18
10 9 9 12 14 14 16 16 18 12 12 13 13 14 6 10 26 7 7 6 12 7 7 5 5 4 23 9 5 10 23 25 24 24 22 21 22 21 19 19 17 18 17 17
6 6 6 12 14 15 13 10 12 15 14 14 17 5 8 8 17 2 4 2 3 3 1 4 4 9 18 20 17 22 20 20 23 23 22 22 21 20 17 15 15 16 17 16
10 8 8 11 11 12 13 7 9 13 12 14 2 11 11 6 8 17 4 7 4 3 4 6 4 13 13 16 22 33 25 22 26 21 19 18 19 16 15 15 15 16 15 15
8 3 8 9 12 14 9 17 9 13 19 10 8 11 4 5 6 4 6 7 3 3 2 6 7 12 10 9 11 10 24 24 22 18 17 16 15 13 12 10 9 9 12 16
7 6 5 10 12 14 3 7 9 11 11 16 6 12 10 12 6 12 3 4 1 2 4 4 5 2 1 1 5 9 10 18 15 15 13 10 8 4 3 3 3 2 2 3
9 6 11 12 11 9 6 4 1 5 8 15 12 12 9 5 6 4 3 1 5 3 6 5 5 9 2 6 13 17 17 8 11 14 13 10 9 9 6 8 7 7 7 5
7 8 10 7 7 3 12 8 4 4 7 11 16 5 13 15 12 6 5 2 4 5 6 4 8 10 6 8 12 16 16 20 6 8 9 9 10 7 7 5 2 2 3 3
9 6 8 6 5 11 11 8 3 2 4 9 12 17 14 9 6 6 5 5 5 3 5 4 10 18 18 14 13 15 14 20 16 16 21 23 19 15 12 13 12 12 10 8
14 8 4 5 7 9 9 10 8 8 11 13 9 15 14 8 3 10 9 7 6 5 6 8 12 15 17 17 15 19 21 23 22 21 19 20 17 18 17 14 13 12 11 10
5 8 6 11 10 6 6 8 12 5 12 11 10 15 12 11 12 13 12 10 10 7 8 10 10 11 15 17 17 17 20 19 18 16 15 14 13 14 15 15 14 7 8 7
5 5 3 7 2 2 4 2 6 8 8 12 5 15 19 20 6 12 12 18 16 12 9 9 14 14 13 15 15 17 15 15 19 17 14 14 14 13 12 13 12 9 9 8
Wind_Direction
198 221 227 243 122 344 132 131 148 148 158 143 139 154 198 198 232 281 287 251 229 179 154 187 150 163 145 145 145 156 146 149 157 178 170 206 210 228 128 138 164 117 104 352
170 234 248 249 342 169 156 116 305 171 168 194 166 167 197 199 218 239 263 297 300 346 177 231 161 158 156 145 154 160 148 162 177 202 197 216 204 219 117 149 143 128 133 81
238 221 226 251 259 272 217 147 190 157 186 133 148 145 184 231 242 201 232 256 238 315 279 257 166 160 158 160 156 162 162 175 203 221 168 144 214 128 212 172 154 146 150 138
253 111 49 264 258 250 267 177 172 187 189 189 233 234 192 206 227 218 208 196 235 121 284 250 206 173 164 163 164 172 169 182 204 223 208 189 204 214 185 195 189 163 160 168
210 150 245 253 243 259 267 331 276 296 294 272 207 267 170 181 216 227 218 199 187 200 219 265 272 168 167 165 171 169 178 179 197 214 197 206 196 227 215 184 136 164 168 170
284 16 231 240 245 261 295 279 283 265 259 260 254 235 158 180 217 220 225 207 189 191 228 191 237 259 166 170 163 173 173 178 194 190 205 215 224 221 269 171 165 193 186 179
209 208 229 263 270 244 249 258 250 230 313 323 346 237 129 200 212 212 192 206 205 203 225 201 207 223 165 170 173 170 168 172 186 196 198 213 209 269 288 173 193 205 201 197
262 177 184 191 243 250 204 244 257 176 199 272 290 3 84 148 172 163 170 186 191 199 227 225 154 167 107 171 177 166 167 172 180 194 202 210 180 151 249 226 220 243 329 0
333 112 144 247 217 255 331 242 305 297 87 227 262 72 271 106 144 152 168 185 197 196 211 203 182 151 165 248 174 167 165 171 180 196 194 209 197 199 216 228 231 259 312 121
307 277 238 193 214 269 278 10 299 309 70 250 59 104 324 358 135 146 163 160 198 228 230 179 181 169 183 207 167 168 166 172 180 193 197 205 211 215 225 228 226 244 268 278
302 307 311 323 215 256 225 225 234 86 70 306 337 103 327 307 301 167 165 169 199 222 217 206 181 169 167 190 220 169 164 172 182 196 189 198 200 212 225 218 234 231 263 269
337 306 295 285 287 76 113 287 291 271 102 294 326 313 84 249 257 148 101 70 319 95 214 242 195 176 189 193 176 170 168 174 185 195 192 193 200 201 208 219 225 230 241 238
354 287 260 262 284 206 276 234 251 335 149 187 127 284 264 308 293 133 125 98 88 139 114 305 349 172 171 170 162 167 173 177 183 191 187 191 197 207 210 213 216 224 226 232
317 276 284 302 328 253 255 268 309 309 282 196 237 278 213 273 272 133 135 118 100 196 91 72 10 334 156 173 158 155 256 179 180 184 190 193 197 206 213 219 214 219 224 229
252 270 290 304 309 315 307 295 244 283 234 282 312 320 125 205 269 167 158 134 124 135 126 106 12 348 325 140 172 178 205 179 183 182 190 194 197 205 211 221 222 221 224 230
236 273 280 281 283 274 267 268 277 243 257 262 152 230 69 59 225 211 171 167 162 134 139 163 130 35 282 324 192 206 174 180 184 181 183 186 195 204 210 217 219 225 227 227
271 288 323 291 309 305 288 277 278 281 260 244 263 60 80 23 352 336 355 305 103 98 281 126 171 228 246 177 149 251 214 181 187 183 181 185 187 194 206 210 213 219 225 232
239 259 281 281 278 269 279 337 319 307 307 301 356 110 139 153 163 262 236 220 249 239 276 333 10 312 241 203 205 189 182 183 186 180 186 187 186 190 200 211 224 233 235 237
267 230 278 278 273 278 311 24 358 341 329 271 288 156 104 40 2 211 249 198 230 283 310 311 319 313 305 205 189 190 172 169 166 172 178 188 188 185 205 218 227 246 251 251
253 179 254 275 296 297 308 39 12 350 291 1 39 67 100 74 10 270 254 133 180 34 327 345 1 11 138 95 110 121 159 156 157 164 159 169 183 165 175 202 216 209 258 212
209 239 243 239 240 265 61 88 305 247 349 343 357 103 89 89 232 166 191 173 96 62 25 18 37 61 156 127 128 110 111 44 114 123 118 123 128 122 129 128 122 114 115 129
255 220 253 252 294 296 352 320 328 325 316 333 331 91 131 149 215 167 138 168 95 64 41 59 86 71 70 162 134 129 133 141 184 154 162 160 131 140 123 125 89 100 96 128
229 243 284 310 191 257 261 273 292 176 297 289 290 102 87 67 134 129 135 103 88 68 40 89 86 74 71 97 146 132 158 164 168 146 120 110 112 110 95 94 94 96 104 113
273 237 241 309 310 306 324 314 293 290 290 288 311 122 128 142 162 148 136 106 77 50 34 84 87 75 81 92 82 106 117 118 124 117 119 113 109 103 99 91 92 91 98 115
141 197 222 258 246 267 305 1 331 314 301 291 273 141 146 161 175 139 131 121 112 87 74 76 94 90 94 111 99 94 103 121 108 105 104 109 112 117 118 118 109 117 141 138
288 310 290 298 45 289 288 338 337 309 329 306 1 65 70 335 154 135 114 124 127 118 104 97 89 101 108 123 113 105 116 119 124 115 115 116 110 114 110 112 117 128 134 143